Tracking 33446 objects as of 10-Mar-2026
HD Live streaming from Space Station
objects crossing your sky now

STARLINK-35819

Track STARLINK-35819 now!
10-day predictions
STARLINK-35819 is classified as:


NORAD ID: 66285
Int'l Code: 2025-247W
Perigee: 481.5 km
Apogee: 483.1 km
Inclination: 53.2 °
Period: 94.1 minutes
Semi major axis: 6853 km
RCS: Unknown
Launch date: October 31, 2025
Source: United States (US)
Launch site: AIR FORCE WESTERN TEST RANGE (AFWTR)
Your satellite tracking list
Your tracking list is empty




NASA's NSSDC Master Catalog

Two Line Element Set (TLE):
1 66285U 25247W   26068.62628744  .00018521  00000-0  63580-3 0  9990
2 66285  53.1577 191.7561 0001161  55.2080 304.9030 15.30204109 21025
Source of the keplerian elements: AFSPC